     2              OBSERVATION DATA    GPS                 RINEX VERSION / TYPE
GESARX 07-Mar-1990 USGS 07.04.95 16:05                      PGM / RUN BY / DATE
                                                            COMMENT
Transfer TI4100 GESAR --> Rinex Observation File            COMMENT
Original Marker Name: JPAR                                  COMMENT
Campaign Name: USGS-Mar 90 So CA                            COMMENT
4-Character Station Name: J1R1                              COMMENT
6-Character Antenna Code: TI4100                            COMMENT
Vertical Measurement Point: PAE                             COMMENT
Vertical Offset to Rinex Ref. Point: 0.0000                 COMMENT
Radial Measurement Point: PAE                               COMMENT
Radial Offset to Rinex Ref. Point: 0.0842                   COMMENT
Antenna Height from Field Measurement: 1.4550 m             COMMENT
Original XYZ: -2493129.7689 -4655332.1539 3565498.2596      COMMENT
New XYZ position is based on association with SCEC monument COMMENT
E1C7Z5U5+0051. Position of that monument is believed to be  COMMENT
valid to within 1 m horizontally; vertical accuracy         COMMENT
should be no worse than 3-times this value.                 COMMENT
                                                            COMMENT
Revised Rinex header created by UCSD GPS archive for        COMMENT
GSAC on 24-Mar-2000 (2000:084) 17:37:28 GMT                 COMMENT
For assistance contact dagnew@ucsd.edu or hjohnson@ucsd.edu COMMENT
                                                            COMMENT
JPL ARIES NO 1 1975                                         MARKER NAME
Clark US GEOLOGICAL SURVEY                                  OBSERVER / AGENCY
UT14 TI 4100 GESAR 1.6                                      REC # / TYPE / VERS
4015 TI 4100                                                ANT # / TYPE
 -2493129.8915 -4655332.1118  3565498.3483                  APPROX POSITION XYZ
        1.4526        0.0000        0.0000                  ANTENNA: DELTA H/E/N
     1     1     0                                          WAVELENGTH FACT L1/2
     4    L1    L2    P1    P2                              # / TYPES OF OBSERV
    30                                                      INTERVAL
  1990     3    28     0    42   59.000000                  TIME OF FIRST OBS
  1990     3    28     8    39   59.000000                  TIME OF LAST OBS
                                                            END OF HEADER
 90  3 28  0 42 59.0800000  0  2  6  2
          .131 9          .495 8  22427665.924 9  22427676.547 8
         -.220 1          .389 1  22348463.745 1  22348477.806 1
 90  3 28  0 43 29.0800000  0  2  6  2
    -62685.114 8    -48845.004 8  22415736.039 8  22415747.815 8
     70130.648 1     54647.740 1  22361810.586 1  22361822.907 1
 90  3 28  0 43 59.0800000  0  2  6  2
   -125325.541 8    -97655.570 8  22403817.457 8  22403828.023 8
    140369.946 1    109379.610 1  22375177.461 1  22375189.056 1
 90  3 28  0 44 29.0800000  0  2  6  2
   -187920.117 8   -146430.410 9  22391906.488 8  22391915.381 9
    210714.437 1    164193.460 1  22388564.598 1  22388574.609 1
 90  3 28  0 44 59.0800000  0  2  6  2
   -250468.222 9   -195169.060 8  22380004.063 9  22380012.542 8
    281158.279 1    219084.700 1  22401969.267 1  22401980.787 1
 90  3 28  0 45 29.0800000  0  2  6  2
   -312968.964 8   -243870.793 8  22368109.656 8  22368120.551 8
    351701.375 1    274053.294 1  22415392.720 1  22415403.218 1
 90  3 28  0 45 59.0800000  0  2  6  2
   -375421.528 9   -292535.011 8  22356225.562 9  22356235.411 8
    422346.173 1    329101.126 1  22428835.483 1  22428847.133 1
 90  3 28  0 46 29.0800000  0  2  6  2
   -437824.956 8   -341160.919 9  22344350.172 8  22344360.761 9
    493081.394 1    384219.410 1  22442296.195 1  22442308.105 1
 90  3 28  0 46 59.0800000  0  2  6  2
   -500179.794 8   -389748.969 9  22332484.841 8  22332495.338 9
    563909.812 1    439410.321 1  22455774.634 1  22455786.015 1
 90  3 28  0 47 29.0800000  0  2  6  2
   -562484.126 8   -438297.679 8  22320628.257 8  22320638.066 8
    634831.635 1    494674.026 1  22469271.683 1  22469281.556 1
 90  3 28  0 47 59.0800000  0  2  6  2
   -624736.559 9   -486805.926 8  22308782.712 9  22308792.053 8
    705840.357 1    550005.462 1  22482783.300 1  22482794.585 1
